Regional Weather Roundup
Issued by NWS Goodland, KS

Home | Current Version | Previous Version | Text Only | Print | Product List | Glossary On
Versions: 1 2 3 4 5 6 7 8 9 10 11 12 13 14 15 16 17 18 19 20 21 22 23 24 25 26 27 28 29 30 31 32 33 34 35 36 37 38 39 40 41 42 43 44 45 46 47 48 49 50
000
ASUS43 KGLD 290408
RWRGLD

GOODLAND FORECAST AREA HOURLY WEATHER ROUNDUP
NATIONAL WEATHER SERVICE GOODLAND KS
1000 PM MDT MON JUL 28 2014

...OFFICIAL OBSERVATIONS...

CITY           SKY/WX    TMP DP  RH WIND       PRES   REMARKS
GOODLAND KS    CLOUDY    69  56  62 S9        30.26R
HILL CITY KS   MOCLDY    76  58  53 E7        30.21R
IMPERIAL NEB   CLOUDY    71  57  61 SE14      30.24R
MCCOOK NEB     PTCLDY    70  59  68 E7        30.23R
AKRON CO       CLOUDY    73  53  49 S7        30.29R
BURLINGTON CO  MOCLDY    67  59  75 S7        30.28R
LIMON CO       PTCLDY    64  54  69 S6        30.33R
$$

...UNOFFICIAL OBSERVATIONS...

CITY           SKY/WX    TMP DP  RH WIND       PRES   REMARKS
COLBY KS       CLEAR     70  59  68 S6        30.25S
LENORA KS        N/A     73  32  22 MISG        N/A
NORTON KS      CLEAR     70  54  56 E9        30.21R
OBERLIN KS     FAIR      72  55  56 E12       30.22R
ST FRANCIS KS  CLOUDY    70  52  52 S9        30.24R
TRIBUNE KS     MOCLDY    66  48  52 S7        30.28R
TRENTON NEB      N/A     70  32  24 E12         N/A
KIT CARSON CO    N/A     71  59  66 N7          N/A
WRAY CO          N/A     75  52  43 S9        30.25
YUMA CO          N/A     72  55  54 SE5G12      N/A
$$



USA.gov is the U.S. government's official web portal to all federal, state and local government web resources and services.